Flag for Germany Weather past 2 weeks in Wegberg, North Rhine-Westphalia, Germany

Now
55 °F

Partly cloudy.


Feels Like: 52 °F
Forecast: 51 / 61 °F
Wind: 13 mph from Southwest

Location: Duesseldorf

Current Time: Sep 5, 2015 at 12:14:51 AM

Latest Report: Sep 4, 2015 at 11:20 PM


Visibility: N/A

Pressure: 29.95 "Hg

Humidity: 88%

Dew point: 52 °F

Location of WegbergLocation

Historic Weather in Wegberg — Graph

°F

Wegberg temperature yesterday

Maximum temperature yesterday: 61 °F (at 1:50 PM)
Minimum temperature yesterday: 52 °F (at 5:50 AM)
Average temperature yesterday: 57 °F

Past Weeks' High & Low Weather Summary

 TemperatureHumidityPressure
High90 °F (Aug 30, 3:20 PM)100% (Aug 27, 8:20 PM)30.24 "Hg (Aug 27, 8:20 PM)
Low52 °F (Aug 29, 2:20 AM)30% (Aug 22, 5:20 PM)29.50 "Hg (Aug 24, 4:50 PM)
Average66 °F72%29.94 "Hg
* Reported Aug 20 10:20 PM — Sep 4 10:20 PM, Wegberg, Weather by CustomWeather, © 2015

Note: Actual official high and low records may vary slightly from our data, if they occured in-between our weather recording intervals... More about our weather records

Advertising

Wegberg weather history for previous 24 hours

 ConditionsComfort  
Time TempWeatherWind HumidityBarometerVisibility
10:20 PM
Fri, Sep 4
55 °FLight rain. Passing clouds.12 mph88%29.95 "HgN/A
9:50 PM55 °FRain. Partly cloudy.9 mph88%29.95 "HgN/A
9:20 PM57 °FLight rain. Passing clouds.13 mph77%29.95 "HgN/A
8:50 PM57 °FPartly sunny.14 mph77%29.95 "HgN/A
8:20 PM59 °FPartly sunny.10 mph68%29.92 "HgN/A
7:50 PM59 °FPartly sunny.12 mph68%29.92 "HgN/A
7:20 PM59 °FPartly sunny.12 mph63%29.92 "HgN/A
6:50 PM59 °FPartly sunny.12 mph63%29.92 "HgN/A
6:20 PM61 °FPartly sunny.13 mph59%29.92 "HgN/A
5:50 PM61 °FPartly sunny.14 mph63%29.92 "HgN/A
5:20 PM61 °FPartly sunny.14 mph63%29.92 "HgN/A
4:50 PM61 °FPartly sunny.10 mph68%29.95 "HgN/A
4:20 PM59 °FSprinkles. Partly sunny.8 mph72%29.95 "HgN/A
3:50 PM61 °FPartly sunny.16 mph63%29.95 "HgN/A
3:20 PM61 °FBroken clouds.14 mph63%29.95 "HgN/A
2:50 PM61 °FPartly sunny.15 mph63%29.95 "HgN/A
2:20 PM61 °FPartly sunny.13 mph63%29.95 "HgN/A
1:50 PM61 °FPartly sunny.14 mph63%29.95 "HgN/A
1:20 PM59 °FBroken clouds.10 mph72%29.98 "HgN/A
12:50 PM59 °FPartly sunny.15 mph68%29.98 "HgN/A
12:20 PM59 °FBroken clouds.15 mph68%29.98 "HgN/A
11:50 AM59 °FScattered clouds.15 mph68%29.98 "HgN/A
11:20 AM59 °FScattered clouds.14 mph68%29.98 "HgN/A
10:50 AM59 °FScattered clouds.12 mph72%29.95 "HgN/A
10:20 AM57 °FPassing clouds.10 mph77%29.98 "HgN/A
9:50 AM55 °FPartly sunny.9 mph82%29.95 "HgN/A
9:20 AM55 °FScattered clouds.12 mph82%29.95 "HgN/A
8:50 AM54 °FPassing clouds.8 mph88%29.95 "HgN/A
8:20 AM54 °FScattered clouds.9 mph88%29.95 "HgN/A
7:50 AM52 °FScattered clouds.10 mph88%29.95 "HgN/A
7:20 AM52 °FPassing clouds.10 mph88%29.95 "HgN/A
6:50 AM52 °FPassing clouds.9 mph94%29.95 "HgN/A
6:20 AM52 °FPassing clouds.9 mph94%29.95 "HgN/A
5:50 AM52 °FClear.9 mph88%29.95 "Hg10 mi
5:20 AM54 °FClear.8 mph88%29.95 "Hg10 mi
4:50 AM54 °FClear.6 mph88%29.95 "Hg10 mi
4:20 AM54 °FClear.7 mph88%29.95 "Hg10 mi
3:50 AM54 °FClear.8 mph88%29.95 "Hg10 mi
3:20 AM55 °FClear.9 mph82%29.95 "Hg10 mi
2:50 AM55 °FClear.9 mph88%29.95 "Hg10 mi
2:20 AM55 °FClear.7 mph88%29.98 "Hg10 mi
1:50 AM55 °FClear.7 mph88%29.98 "Hg10 mi
1:20 AM55 °FClear.7 mph88%29.98 "Hg10 mi
12:50 AM55 °FClear.6 mph88%29.98 "Hg10 mi
12:20 AM55 °FClear.5 mph88%29.98 "Hg10 mi
Weather by CustomWeather, © 2015

See weather overviewHow to use our weather pages